Hourly Data Report for October 23, 2014

All times are specified in Local Standard Time (LST). Add 1 hour to adjust for Daylight Saving Time where and when it is observed.

MONCTON INTL A
NEW BRUNSWICK

46°06'44.000" N
64°40'43.000" W
70.70 m
8103201
71705
YQM

Download Data

Hourly Data (October 2014)
Hourly Data Report for October 23, 2014
Temp Definition
°C
Dew Point Temp Definition
°C
Rel Hum Definition
%
Wind Dir Definition
10's deg

Wind Spd Definition
km/h
Visibility Definition
km
Stn Press Definition
kPa
Hmdx Definition


Wind Chill Definition


Weather Definition


TIME
00:00 Legend Double Dagger 8.4 7.3 93 4 22 16.1 101.62     LegendNANA
01:00 Legend Double Dagger 8.5 7.6 94 5 26 24.1 101.58     Rain
02:00 Legend Double Dagger 8.5 7.8 95 4 22 24.1 101.52     Cloudy
03:00 Legend Double Dagger 8.8 8.1 95 4 24 16.1 101.42     Rain
04:00 Legend Double Dagger 9.2 8.3 94 5 26 12.9 101.37     Rain
05:00 Legend Double Dagger 9.4 8.5 94 5 29 19.3 101.34     Rain
06:00 Legend Double Dagger 9.4 8.5 94 5 27 16.1 101.31     LegendNANA
07:00 Legend Double Dagger 9.6 8.5 93 4 27 16.1 101.26     LegendNANA
08:00 Legend Double Dagger 9.9 8.2 89 5 27 19.3 101.28     Cloudy
09:00 Legend Double Dagger 10.3 7.9 85 5 28 24.1 101.20     LegendNANA
10:00 Legend Double Dagger 10.6 8.2 85 5 28 24.1 101.20     LegendNANA
11:00 Legend Double Dagger 11.0 8.6 85 3 28 24.1 101.15     Cloudy
12:00 Legend Double Dagger 11.3 8.5 83 4 26 24.1 101.04     LegendNANA
13:00 Legend Double Dagger 11.5 8.2 80 4 33 24.1 100.95     LegendNANA
14:00 Legend Double Dagger 11.3 8.0 80 4 28 24.1 100.89     Cloudy
15:00 Legend Double Dagger 10.1 8.7 91 4 22 8.1 100.85     Rain,Fog
16:00 Legend Double Dagger 9.7 8.5 92 4 26 4.8 100.77     Rain,Fog
17:00 Legend Double Dagger 9.4 8.7 95 2 28 2.4 100.67     Rain,Fog
18:00 Legend Double Dagger 9.5 8.6 94 3 27 2.4 100.61     Rain,Fog
19:00 Legend Double Dagger 9.7 8.8 94 4 31 9.7 100.53     Rain,Fog
20:00 Legend Double Dagger 9.8 8.9 94 4 28 9.7 100.48     Rain,Fog
21:00 Legend Double Dagger 9.8 8.7 93 4 35 16.1 100.38     Rain
22:00 Legend Double Dagger 9.6 8.7 94 4 32 12.9 100.31     Rain
23:00 Legend Double Dagger 9.6 8.7 94 4 34 12.9 100.24     Rain

Notes on Data Quality.

Legend

  • E = Estimated
  • M = Missing
  • NA = Not Available
  • ‡ = Partner data that is not subject to review by the National Climate Archives
Date modified: